^^

..:: Storico WU ::..




Lo storico viene creato da WUnderground con i dati che la stazione Meteomincio invia al loro server. L' aggiornamento viene fatto ogni 5 minuti circa, tuttavia possono esserci intervalli pił ampi a causa di errori, interruzioni di servizio o problemi nell' invio tramite FTP.


Storico stazione MeteoMincio
Giorno Sommario per Febbario 12, 2022 Unità:  Metrico    Inglese   Entrambi
Giorno Settimana Mese Anno
  Max: Min: Media:
Temperatura: 13.0 °C 1.0 °C 6.3 °C
Dew Point: 4.0 °C -4.0 °C -0 °C
Umidità: 94% 33% 69%
Velocità vento: 23km/h 0km/h 7.4km/h
Raffica: 32km/h - -
Direzione- - East
Pressione: 1033.2 hPa 1027.7 hPa -
Precipitazioni: 0.00 mm    
 
 
Tabulato Dati per Febbario 12, 2022
Ora Temperatura Dew Point Pressione Direzione Velocità vento Raffica Umidità Intensità pioggia (oraria) Info solare Situazione
00:04 4.0 °C 3.0 °C 1027.7 hPa NE 2 km/h 4 km/h 90% 0.00 mm 0.00 W/m2 unknown
00:09 4.0 °C 3.0 °C 1027.8 hPa NE 3 km/h 4 km/h 90% 0.00 mm 0.00 W/m2 unknown
00:14 4.0 °C 3.0 °C 1027.8 hPa NE 3 km/h 4 km/h 90% 0.00 mm 0.00 W/m2 unknown
00:19 4.0 °C 3.0 °C 1027.8 hPa NE 3 km/h 4 km/h 90% 0.00 mm 0.00 W/m2 unknown
00:24 4.0 °C 3.0 °C 1027.9 hPa NE 3 km/h 4 km/h 90% 0.00 mm 0.00 W/m2 unknown
00:29 4.0 °C 3.0 °C 1027.9 hPa NE 3 km/h 4 km/h 91% 0.00 mm 0.00 W/m2 unknown
00:34 4.0 °C 3.0 °C 1028.0 hPa NE 4 km/h 6 km/h 91% 0.00 mm 0.00 W/m2 unknown
00:39 4.0 °C 3.0 °C 1028.0 hPa NE 4 km/h 6 km/h 91% 0.00 mm 0.00 W/m2 unknown
00:44 4.0 °C 3.0 °C 1028.1 hPa NE 4 km/h 6 km/h 91% 0.00 mm 0.00 W/m2 unknown
00:49 4.0 °C 3.0 °C 1028.1 hPa NE 4 km/h 6 km/h 91% 0.00 mm 0.00 W/m2 unknown
00:54 4.0 °C 3.0 °C 1028.2 hPa NE 4 km/h 6 km/h 91% 0.00 mm 0.00 W/m2 unknown
00:59 4.0 °C 3.0 °C 1028.2 hPa NE 3 km/h 6 km/h 91% 0.00 mm 0.00 W/m2 unknown
01:04 4.0 °C 2.0 °C 1028.2 hPa NE 2 km/h 5 km/h 91% 0.00 mm 0.00 W/m2 unknown
01:09 4.0 °C 2.0 °C 1028.2 hPa NE 4 km/h 6 km/h 91% 0.00 mm 0.00 W/m2 unknown
01:14 4.0 °C 3.0 °C 1028.2 hPa NE 3 km/h 6 km/h 91% 0.00 mm 0.00 W/m2 unknown
01:19 4.0 °C 3.0 °C 1028.2 hPa NE 3 km/h 6 km/h 91% 0.00 mm 0.00 W/m2 unknown
01:24 4.0 °C 2.0 °C 1028.4 hPa ENE 4 km/h 6 km/h 91% 0.00 mm 0.00 W/m2 unknown
01:29 3.0 °C 2.0 °C 1028.6 hPa East 5 km/h 6 km/h 91% 0.00 mm 0.00 W/m2 unknown
01:34 3.0 °C 2.0 °C 1028.6 hPa NE 3 km/h 6 km/h 92% 0.00 mm 0.00 W/m2 unknown
01:39 3.0 °C 2.0 °C 1028.8 hPa NE 4 km/h 6 km/h 92% 0.00 mm 0.00 W/m2 unknown
01:44 3.0 °C 2.0 °C 1028.8 hPa NE 3 km/h 6 km/h 93% 0.00 mm 0.00 W/m2 unknown
01:49 3.0 °C 2.0 °C 1028.9 hPa NNE 3 km/h 5 km/h 93% 0.00 mm 0.00 W/m2 unknown
01:54 3.0 °C 3.0 °C 1029.0 hPa NE 4 km/h 6 km/h 93% 0.00 mm 0.00 W/m2 unknown
01:59 4.0 °C 3.0 °C 1029.1 hPa ENE 6 km/h 6 km/h 93% 0.00 mm 0.00 W/m2 unknown
02:04 4.0 °C 3.0 °C 1029.2 hPa ENE 8 km/h 11 km/h 93% 0.00 mm 0.00 W/m2 unknown
02:09 4.0 °C 3.0 °C 1029.2 hPa ENE 9 km/h 13 km/h 92% 0.00 mm 0.00 W/m2 unknown
02:14 5.0 °C 3.0 °C 1029.3 hPa ENE 10 km/h 13 km/h 91% 0.00 mm 0.00 W/m2 unknown
02:19 5.0 °C 3.0 °C 1029.4 hPa ENE 8 km/h 11 km/h 89% 0.00 mm 0.00 W/m2 unknown
02:24 5.0 °C 3.0 °C 1029.6 hPa ENE 8 km/h 11 km/h 89% 0.00 mm 0.00 W/m2 unknown
02:29 4.0 °C 3.0 °C 1029.7 hPa ENE 7 km/h 11 km/h 89% 0.00 mm 0.00 W/m2 unknown
02:34 4.0 °C 3.0 °C 1029.7 hPa ENE 9 km/h 13 km/h 89% 0.00 mm 0.00 W/m2 unknown
02:39 4.0 °C 3.0 °C 1029.7 hPa ENE 11 km/h 15 km/h 88% 0.00 mm 0.00 W/m2 unknown
02:44 4.0 °C 3.0 °C 1029.7 hPa ENE 10 km/h 14 km/h 88% 0.00 mm 0.00 W/m2 unknown
02:49 4.0 °C 3.0 °C 1029.7 hPa ENE 9 km/h 13 km/h 88% 0.00 mm 0.00 W/m2 unknown
02:54 4.0 °C 2.0 °C 1029.8 hPa ENE 8 km/h 13 km/h 88% 0.00 mm 0.00 W/m2 unknown
02:59 4.0 °C 2.0 °C 1029.8 hPa ENE 8 km/h 11 km/h 88% 0.00 mm 0.00 W/m2 unknown
03:04 4.0 °C 2.0 °C 1029.8 hPa ENE 7 km/h 11 km/h 89% 0.00 mm 0.00 W/m2 unknown
03:09 4.0 °C 2.0 °C 1029.8 hPa ENE 6 km/h 10 km/h 89% 0.00 mm 0.00 W/m2 unknown
03:14 4.0 °C 2.0 °C 1029.9 hPa ENE 6 km/h 8 km/h 90% 0.00 mm 0.00 W/m2 unknown
03:19 4.0 °C 2.0 °C 1029.9 hPa ENE 5 km/h 8 km/h 90% 0.00 mm 0.00 W/m2 unknown
03:24 4.0 °C 2.0 °C 1030.0 hPa ENE 7 km/h 11 km/h 90% 0.00 mm 0.00 W/m2 unknown
03:29 4.0 °C 2.0 °C 1030.1 hPa ENE 8 km/h 11 km/h 90% 0.00 mm 0.00 W/m2 unknown
03:34 4.0 °C 2.0 °C 1030.2 hPa ENE 8 km/h 11 km/h 90% 0.00 mm 0.00 W/m2 unknown
03:39 4.0 °C 2.0 °C 1030.2 hPa ENE 9 km/h 13 km/h 90% 0.00 mm 0.00 W/m2 unknown
03:44 4.0 °C 2.0 °C 1030.3 hPa ENE 9 km/h 13 km/h 90% 0.00 mm 0.00 W/m2 unknown
03:49 4.0 °C 2.0 °C 1030.4 hPa ENE 8 km/h 13 km/h 90% 0.00 mm 0.00 W/m2 unknown
03:54 4.0 °C 2.0 °C 1030.4 hPa ENE 8 km/h 11 km/h 90% 0.00 mm 0.00 W/m2 unknown
03:59 4.0 °C 2.0 °C 1030.5 hPa ENE 8 km/h 11 km/h 91% 0.00 mm 0.00 W/m2 unknown
04:04 4.0 °C 2.0 °C 1030.5 hPa ENE 9 km/h 13 km/h 91% 0.00 mm 0.00 W/m2 unknown
04:09 4.0 °C 2.0 °C 1030.5 hPa East 8 km/h 13 km/h 91% 0.00 mm 0.00 W/m2 unknown
04:14 4.0 °C 2.0 °C 1030.6 hPa East 12 km/h 14 km/h 91% 0.00 mm 0.00 W/m2 unknown
04:19 4.0 °C 3.0 °C 1030.7 hPa East 12 km/h 19 km/h 91% 0.00 mm 0.00 W/m2 unknown
04:24 4.0 °C 3.0 °C 1030.7 hPa East 12 km/h 19 km/h 91% 0.00 mm 0.00 W/m2 unknown
04:29 4.0 °C 3.0 °C 1030.7 hPa East 12 km/h 16 km/h 91% 0.00 mm 0.00 W/m2 unknown
04:34 4.0 °C 3.0 °C 1030.8 hPa East 11 km/h 14 km/h 91% 0.00 mm 0.00 W/m2 unknown
04:39 4.0 °C 3.0 °C 1030.8 hPa East 10 km/h 13 km/h 91% 0.00 mm 0.00 W/m2 unknown
04:44 4.0 °C 3.0 °C 1030.8 hPa East 9 km/h 13 km/h 91% 0.00 mm 0.00 W/m2 unknown
04:49 4.0 °C 3.0 °C 1030.8 hPa East 9 km/h 11 km/h 91% 0.00 mm 0.00 W/m2 unknown
04:54 4.0 °C 3.0 °C 1030.8 hPa East 8 km/h 11 km/h 91% 0.00 mm 0.00 W/m2 unknown
04:59 4.0 °C 3.0 °C 1030.9 hPa East 8 km/h 11 km/h 91% 0.00 mm 0.00 W/m2 unknown
05:04 4.0 °C 3.0 °C 1030.9 hPa ENE 8 km/h 11 km/h 91% 0.00 mm 0.00 W/m2 unknown
05:09 4.0 °C 3.0 °C 1031.0 hPa ENE 7 km/h 10 km/h 91% 0.00 mm 0.00 W/m2 unknown
05:14 4.0 °C 3.0 °C 1031.0 hPa ENE 8 km/h 11 km/h 91% 0.00 mm 0.00 W/m2 unknown
05:19 4.0 °C 3.0 °C 1031.0 hPa ENE 7 km/h 11 km/h 91% 0.00 mm 0.00 W/m2 unknown
05:24 4.0 °C 3.0 °C 1031.0 hPa ENE 7 km/h 8 km/h 91% 0.00 mm 0.00 W/m2 unknown
05:29 4.0 °C 2.0 °C 1031.0 hPa ENE 5 km/h 8 km/h 91% 0.00 mm 0.00 W/m2 unknown
05:34 4.0 °C 2.0 °C 1031.0 hPa ENE 6 km/h 8 km/h 91% 0.00 mm 0.00 W/m2 unknown
05:39 4.0 °C 2.0 °C 1031.0 hPa ENE 5 km/h 8 km/h 91% 0.00 mm 0.00 W/m2 unknown
05:44 3.0 °C 2.0 °C 1031.1 hPa ENE 5 km/h 8 km/h 92% 0.00 mm 0.00 W/m2 unknown
05:49 3.0 °C 2.0 °C 1031.1 hPa ENE 5 km/h 8 km/h 92% 0.00 mm 0.00 W/m2 unknown
05:54 3.0 °C 2.0 °C 1031.1 hPa NE 5 km/h 6 km/h 92% 0.00 mm 0.00 W/m2 unknown
05:59 3.0 °C 2.0 °C 1031.1 hPa NE 5 km/h 6 km/h 92% 0.00 mm 0.00 W/m2 unknown
06:04 3.0 °C 2.0 °C 1031.2 hPa NE 5 km/h 6 km/h 92% 0.00 mm 0.00 W/m2 unknown
06:09 3.0 °C 2.0 °C 1031.2 hPa NE 5 km/h 6 km/h 92% 0.00 mm 0.00 W/m2 unknown
06:14 3.0 °C 2.0 °C 1031.2 hPa NE 4 km/h 6 km/h 92% 0.00 mm 0.00 W/m2 unknown
06:19 3.0 °C 2.0 °C 1031.1 hPa NE 5 km/h 6 km/h 93% 0.00 mm 0.00 W/m2 unknown
06:24 3.0 °C 2.0 °C 1031.1 hPa ENE 4 km/h 6 km/h 93% 0.00 mm 0.00 W/m2 unknown
06:29 3.0 °C 2.0 °C 1031.2 hPa ENE 4 km/h 6 km/h 92% 0.00 mm 0.00 W/m2 unknown
06:34 3.0 °C 2.0 °C 1031.2 hPa NE 5 km/h 6 km/h 92% 0.00 mm 0.00 W/m2 unknown
06:39 3.0 °C 2.0 °C 1031.2 hPa NE 4 km/h 6 km/h 92% 0.00 mm 0.00 W/m2 unknown
06:44 3.0 °C 1.0 °C 1031.2 hPa NE 4 km/h 6 km/h 92% 0.00 mm 0.00 W/m2 unknown
06:49 2.0 °C 1.0 °C 1031.3 hPa NE 4 km/h 6 km/h 92% 0.00 mm 0.00 W/m2 unknown
06:54 2.0 °C 1.0 °C 1031.3 hPa NE 4 km/h 6 km/h 92% 0.00 mm 0.00 W/m2 unknown
06:59 2.0 °C 1.0 °C 1031.4 hPa NE 3 km/h 6 km/h 93% 0.00 mm 0.00 W/m2 unknown
07:04 2.0 °C 1.0 °C 1031.5 hPa NE 2 km/h 5 km/h 93% 0.00 mm 0.00 W/m2 unknown
07:09 2.0 °C 1.0 °C 1031.5 hPa Calm   3 km/h 93% 0.00 mm 0.00 W/m2 unknown
07:14 2.0 °C 1.0 °C 1031.6 hPa Calm   2 km/h 93% 0.00 mm 0.00 W/m2 unknown
07:19 2.0 °C 1.0 °C 1031.6 hPa Calm   2 km/h 93% 0.00 mm 0.00 W/m2 unknown
07:24 2.0 °C 1.0 °C 1031.7 hPa NE 1 km/h 2 km/h 93% 0.00 mm 0.00 W/m2 unknown
07:29 1.0 °C 0.0 °C 1031.7 hPa ESE 2 km/h 4 km/h 93% 0.00 mm 5.00 W/m2 unknown
07:34 1.0 °C 0.0 °C 1031.8 hPa ESE 1 km/h 3 km/h 93% 0.00 mm 9.00 W/m2 unknown
07:39 1.0 °C 1.0 °C 1031.8 hPa Calm   2 km/h 94% 0.00 mm 12.00 W/m2 unknown
07:44 1.0 °C 1.0 °C 1031.8 hPa Calm   2 km/h 94% 0.00 mm 14.00 W/m2 unknown
07:49 1.0 °C 0.0 °C 1031.9 hPa Calm     94% 0.00 mm 18.00 W/m2 unknown
07:54 1.0 °C 0.0 °C 1031.9 hPa Calm     94% 0.00 mm 19.00 W/m2 unknown
07:59 1.0 °C 0.0 °C 1031.9 hPa Calm   2 km/h 94% 0.00 mm 23.00 W/m2 unknown
08:04 1.0 °C 0.0 °C 1031.9 hPa Calm   2 km/h 94% 0.00 mm 37.00 W/m2 unknown
08:09 1.0 °C 0.0 °C 1031.9 hPa Calm     94% 0.00 mm 54.00 W/m2 unknown
08:14 1.0 °C 1.0 °C 1032.0 hPa Calm     94% 0.00 mm 67.00 W/m2 unknown
08:19 2.0 °C 1.0 °C 1032.1 hPa Calm     94% 0.00 mm 76.00 W/m2 unknown
08:24 2.0 °C 1.0 °C 1032.2 hPa Calm     94% 0.00 mm 91.00 W/m2 unknown
08:29 2.0 °C 1.0 °C 1032.3 hPa SE 1 km/h 2 km/h 94% 0.00 mm 105.00 W/m2 unknown
08:34 3.0 °C 2.0 °C 1032.4 hPa SE 2 km/h 2 km/h 94% 0.00 mm 120.00 W/m2 unknown
08:39 3.0 °C 2.0 °C 1032.5 hPa SE 1 km/h 2 km/h 93% 0.00 mm 132.00 W/m2 unknown
08:44 4.0 °C 2.0 °C 1032.6 hPa ESE 1 km/h 2 km/h 92% 0.00 mm 144.00 W/m2 unknown
08:49 4.0 °C 2.0 °C 1032.7 hPa NNW 2 km/h 4 km/h 91% 0.00 mm 162.00 W/m2 unknown
08:54 4.0 °C 2.0 °C 1032.7 hPa NW 2 km/h 4 km/h 90% 0.00 mm 176.00 W/m2 unknown
08:59 4.0 °C 3.0 °C 1032.7 hPa NNW 2 km/h 4 km/h 89% 0.00 mm 192.00 W/m2 unknown
09:04 5.0 °C 3.0 °C 1032.7 hPa NNW 2 km/h 4 km/h 89% 0.00 mm 204.00 W/m2 unknown
09:09 5.0 °C 3.0 °C 1032.8 hPa North 2 km/h 4 km/h 88% 0.00 mm 214.00 W/m2 unknown
09:14 6.0 °C 3.0 °C 1032.9 hPa NNE 3 km/h 6 km/h 88% 0.00 mm 227.00 W/m2 unknown
09:19 6.0 °C 3.0 °C 1032.9 hPa NNE 5 km/h 6 km/h 85% 0.00 mm 239.00 W/m2 unknown
09:24 6.0 °C 3.0 °C 1032.9 hPa NE 5 km/h 6 km/h 83% 0.00 mm 251.00 W/m2 unknown
09:29 6.0 °C 3.0 °C 1033.0 hPa NE 4 km/h 6 km/h 80% 0.00 mm 265.00 W/m2 unknown
09:34 6.0 °C 3.0 °C 1033.0 hPa North 4 km/h 6 km/h 80% 0.00 mm 276.00 W/m2 unknown
09:39 7.0 °C 3.0 °C 1033.0 hPa North 4 km/h 6 km/h 80% 0.00 mm 290.00 W/m2 unknown
09:44 7.0 °C 3.0 °C 1033.0 hPa North 4 km/h 6 km/h 78% 0.00 mm 302.00 W/m2 unknown
09:49 7.0 °C 4.0 °C 1033.1 hPa NNE 3 km/h 6 km/h 78% 0.00 mm 315.00 W/m2 unknown
09:54 8.0 °C 4.0 °C 1033.1 hPa NNE 5 km/h 6 km/h 77% 0.00 mm 327.00 W/m2 unknown
09:59 8.0 °C 4.0 °C 1033.1 hPa NE 7 km/h 11 km/h 74% 0.00 mm 339.00 W/m2 unknown
10:04 8.0 °C 3.0 °C 1033.1 hPa NE 8 km/h 11 km/h 72% 0.00 mm 350.00 W/m2 unknown
10:09 8.0 °C 3.0 °C 1033.0 hPa NE 8 km/h 11 km/h 70% 0.00 mm 360.00 W/m2 unknown
10:14 9.0 °C 3.0 °C 1033.1 hPa ENE 9 km/h 13 km/h 69% 0.00 mm 373.00 W/m2 unknown
10:19 9.0 °C 3.0 °C 1033.1 hPa ENE 11 km/h 15 km/h 67% 0.00 mm 381.00 W/m2 unknown
10:24 9.0 °C 3.0 °C 1033.1 hPa ENE 12 km/h 15 km/h 66% 0.00 mm 392.00 W/m2 unknown
10:29 9.0 °C 3.0 °C 1033.1 hPa ENE 14 km/h 19 km/h 64% 0.00 mm 401.00 W/m2 unknown
10:34 10.0 °C 2.0 °C 1033.1 hPa ENE 12 km/h 19 km/h 60% 0.00 mm 410.00 W/m2 unknown
10:39 10.0 °C 2.0 °C 1033.2 hPa ENE 15 km/h 19 km/h 59% 0.00 mm 418.00 W/m2 unknown
10:44 10.0 °C 2.0 °C 1033.2 hPa ENE 15 km/h 19 km/h 57% 0.00 mm 424.00 W/m2 unknown
10:49 10.0 °C 2.0 °C 1033.2 hPa East 11 km/h 19 km/h 58% 0.00 mm 434.00 W/m2 unknown
10:54 10.0 °C 2.0 °C 1033.2 hPa ENE 12 km/h 16 km/h 58% 0.00 mm 443.00 W/m2 unknown
10:59 10.0 °C 1.0 °C 1033.2 hPa East 13 km/h 19 km/h 55% 0.00 mm 450.00 W/m2 unknown
11:04 10.0 °C 1.0 °C 1033.2 hPa ENE 14 km/h 19 km/h 54% 0.00 mm 457.00 W/m2 unknown
11:09 10.0 °C 1.0 °C 1033.2 hPa East 14 km/h 19 km/h 54% 0.00 mm 461.00 W/m2 unknown
11:14 10.0 °C 1.0 °C 1033.2 hPa ESE 14 km/h 19 km/h 53% 0.00 mm 469.00 W/m2 unknown
11:19 10.0 °C 0.0 °C 1033.2 hPa East 13 km/h 19 km/h 50% 0.00 mm 476.00 W/m2 unknown
11:24 11.0 °C 0.0 °C 1033.2 hPa East 12 km/h 16 km/h 49% 0.00 mm 482.00 W/m2 unknown
11:29 11.0 °C 0.0 °C 1033.1 hPa East 12 km/h 19 km/h 49% 0.00 mm 485.00 W/m2 unknown
11:34 11.0 °C 1.0 °C 1033.1 hPa ENE 13 km/h 19 km/h 49% 0.00 mm 492.00 W/m2 unknown
11:39 11.0 °C 0.0 °C 1033.1 hPa NE 17 km/h 24 km/h 48% 0.00 mm 497.00 W/m2 unknown
11:44 11.0 °C -1.0 °C 1033.0 hPa ENE 22 km/h 30 km/h 43% 0.00 mm 499.00 W/m2 unknown
11:49 11.0 °C -2.0 °C 1033.0 hPa ENE 19 km/h 29 km/h 41% 0.00 mm 503.00 W/m2 unknown
11:54 11.0 °C -2.0 °C 1033.0 hPa East 18 km/h 24 km/h 41% 0.00 mm 512.00 W/m2 unknown
11:59 11.0 °C -2.0 °C 1032.9 hPa East 19 km/h 24 km/h 41% 0.00 mm 512.00 W/m2 unknown
12:04 11.0 °C -2.0 °C 1032.9 hPa East 20 km/h 24 km/h 41% 0.00 mm 513.00 W/m2 unknown
12:09 11.0 °C -2.0 °C 1032.8 hPa ENE 21 km/h 24 km/h 41% 0.00 mm 517.00 W/m2 unknown
12:14 11.0 °C -2.0 °C 1032.7 hPa ENE 21 km/h 26 km/h 40% 0.00 mm 520.00 W/m2 unknown
12:19 12.0 °C -2.0 °C 1032.7 hPa East 18 km/h 26 km/h 39% 0.00 mm 524.00 W/m2 unknown
12:24 12.0 °C -2.0 °C 1032.5 hPa ENE 21 km/h 24 km/h 39% 0.00 mm 522.00 W/m2 unknown
12:29 12.0 °C -2.0 °C 1032.5 hPa ENE 16 km/h 24 km/h 40% 0.00 mm 527.00 W/m2 unknown
12:34 12.0 °C -2.0 °C 1032.4 hPa East 23 km/h 32 km/h 40% 0.00 mm 527.00 W/m2 unknown
12:39 12.0 °C -3.0 °C 1032.3 hPa East 20 km/h 26 km/h 36% 0.00 mm 529.00 W/m2 unknown
12:44 12.0 °C -3.0 °C 1032.2 hPa East 22 km/h 28 km/h 36% 0.00 mm 529.00 W/m2 unknown
12:49 12.0 °C -4.0 °C 1032.1 hPa East 19 km/h 28 km/h 34% 0.00 mm 529.00 W/m2 unknown
12:54 12.0 °C -4.0 °C 1032.0 hPa East 19 km/h 27 km/h 34% 0.00 mm 529.00 W/m2 unknown
12:59 12.0 °C -4.0 °C 1031.9 hPa ESE 23 km/h 28 km/h 34% 0.00 mm 527.00 W/m2 unknown
13:04 12.0 °C -3.0 °C 1031.9 hPa East 22 km/h 29 km/h 35% 0.00 mm 527.00 W/m2 unknown
13:09 12.0 °C -3.0 °C 1031.8 hPa East 19 km/h 29 km/h 34% 0.00 mm 524.00 W/m2 unknown
13:14 12.0 °C -4.0 °C 1031.8 hPa ESE 16 km/h 26 km/h 34% 0.00 mm 524.00 W/m2 unknown
13:19 12.0 °C -3.0 °C 1031.7 hPa East 17 km/h 24 km/h 35% 0.00 mm 520.00 W/m2 unknown
13:24 12.0 °C -2.0 °C 1031.7 hPa ENE 16 km/h 24 km/h 36% 0.00 mm 519.00 W/m2 unknown
13:29 12.0 °C -2.0 °C 1031.6 hPa East 22 km/h 28 km/h 36% 0.00 mm 513.00 W/m2 unknown
13:34 12.0 °C -4.0 °C 1031.5 hPa ESE 21 km/h 27 km/h 34% 0.00 mm 510.00 W/m2 unknown
13:39 12.0 °C -4.0 °C 1031.4 hPa East 18 km/h 23 km/h 33% 0.00 mm 506.00 W/m2 unknown
13:44 12.0 °C -4.0 °C 1031.4 hPa East 17 km/h 24 km/h 33% 0.00 mm 504.00 W/m2 unknown
13:49 12.0 °C -3.0 °C 1031.4 hPa ESE 18 km/h 24 km/h 34% 0.00 mm 497.00 W/m2 unknown
13:54 12.0 °C -3.0 °C 1031.3 hPa East 16 km/h 24 km/h 34% 0.00 mm 492.00 W/m2 unknown
13:59 12.0 °C -3.0 °C 1031.2 hPa East 16 km/h 23 km/h 34% 0.00 mm 485.00 W/m2 unknown
14:04 12.0 °C -3.0 °C 1031.2 hPa East 14 km/h 20 km/h 34% 0.00 mm 482.00 W/m2 unknown
14:09 12.0 °C -3.0 °C 1031.1 hPa East 21 km/h 32 km/h 34% 0.00 mm 473.00 W/m2 unknown
14:14 12.0 °C -3.0 °C 1031.0 hPa East 17 km/h 20 km/h 34% 0.00 mm 468.00 W/m2 unknown
14:19 12.0 °C -3.0 °C 1031.0 hPa East 18 km/h 24 km/h 35% 0.00 mm 457.00 W/m2 unknown
14:24 12.0 °C -3.0 °C 1031.0 hPa East 12 km/h 18 km/h 35% 0.00 mm 454.00 W/m2 unknown
14:29 12.0 °C -3.0 °C 1030.9 hPa ESE 15 km/h 19 km/h 34% 0.00 mm 445.00 W/m2 unknown
14:34 12.0 °C -3.0 °C 1030.8 hPa East 16 km/h 19 km/h 34% 0.00 mm 438.00 W/m2 unknown
14:39 13.0 °C -3.0 °C 1030.8 hPa ENE 14 km/h 24 km/h 34% 0.00 mm 429.00 W/m2 unknown
14:44 13.0 °C -3.0 °C 1030.7 hPa East 20 km/h 24 km/h 34% 0.00 mm 422.00 W/m2 unknown
14:49 12.0 °C -4.0 °C 1030.6 hPa East 19 km/h 28 km/h 33% 0.00 mm 411.00 W/m2 unknown
14:54 12.0 °C -4.0 °C 1030.6 hPa East 19 km/h 28 km/h 33% 0.00 mm 403.00 W/m2 unknown
14:59 12.0 °C -3.0 °C 1030.5 hPa East 19 km/h 26 km/h 34% 0.00 mm 394.00 W/m2 unknown
15:04 12.0 °C -3.0 °C 1030.5 hPa East 14 km/h 26 km/h 34% 0.00 mm 385.00 W/m2 unknown
15:09 12.0 °C -3.0 °C 1030.4 hPa ESE 20 km/h 24 km/h 34% 0.00 mm 376.00 W/m2 unknown
15:14 12.0 °C -3.0 °C 1030.4 hPa ESE 20 km/h 26 km/h 34% 0.00 mm 366.00 W/m2 unknown
15:19 12.0 °C -3.0 °C 1030.4 hPa East 18 km/h 26 km/h 34% 0.00 mm 355.00 W/m2 unknown
15:24 12.0 °C -3.0 °C 1030.4 hPa ESE 18 km/h 24 km/h 34% 0.00 mm 343.00 W/m2 unknown
15:29 12.0 °C -3.0 °C 1030.3 hPa East 21 km/h 28 km/h 34% 0.00 mm 330.00 W/m2 unknown
15:34 12.0 °C -3.0 °C 1030.3 hPa East 17 km/h 27 km/h 35% 0.00 mm 323.00 W/m2 unknown
15:39 12.0 °C -3.0 °C 1030.2 hPa ENE 11 km/h 23 km/h 35% 0.00 mm 309.00 W/m2 unknown
15:44 12.0 °C -3.0 °C 1030.2 hPa ENE 14 km/h 19 km/h 34% 0.00 mm 297.00 W/m2 unknown
15:49 12.0 °C -3.0 °C 1030.2 hPa East 13 km/h 19 km/h 34% 0.00 mm 285.00 W/m2 unknown
15:54 12.0 °C -3.0 °C 1030.1 hPa East 10 km/h 19 km/h 35% 0.00 mm 272.00 W/m2 unknown
15:59 12.0 °C -3.0 °C 1030.1 hPa East 12 km/h 15 km/h 35% 0.00 mm 260.00 W/m2 unknown
16:04 12.0 °C -3.0 °C 1030.0 hPa ESE 16 km/h 19 km/h 36% 0.00 mm 248.00 W/m2 unknown
16:09 12.0 °C -3.0 °C 1030.0 hPa East 16 km/h 21 km/h 36% 0.00 mm 236.00 W/m2 unknown
16:14 12.0 °C -2.0 °C 1030.0 hPa East 14 km/h 21 km/h 37% 0.00 mm 220.00 W/m2 unknown
16:19 12.0 °C -3.0 °C 1030.0 hPa East 13 km/h 19 km/h 37% 0.00 mm 202.00 W/m2 unknown
16:24 12.0 °C -3.0 °C 1029.9 hPa East 13 km/h 19 km/h 37% 0.00 mm 171.00 W/m2 unknown
16:29 12.0 °C -3.0 °C 1029.9 hPa East 16 km/h 23 km/h 37% 0.00 mm 160.00 W/m2 unknown
16:34 12.0 °C -2.0 °C 1029.8 hPa East 14 km/h 23 km/h 38% 0.00 mm 49.00 W/m2 unknown
16:39 11.0 °C -3.0 °C 1029.8 hPa East 11 km/h 21 km/h 38% 0.00 mm 44.00 W/m2 unknown
16:44 11.0 °C -3.0 °C 1029.8 hPa East 10 km/h 16 km/h 38% 0.00 mm 69.00 W/m2 unknown
16:49 11.0 °C -2.0 °C 1029.7 hPa East 15 km/h 21 km/h 39% 0.00 mm 91.00 W/m2 unknown
16:54 11.0 °C -2.0 °C 1029.7 hPa East 13 km/h 19 km/h 39% 0.00 mm 91.00 W/m2 unknown
16:59 11.0 °C -3.0 °C 1029.7 hPa East 10 km/h 19 km/h 39% 0.00 mm 70.00 W/m2 unknown
17:04 11.0 °C -2.0 °C 1029.7 hPa ESE 9 km/h 14 km/h 40% 0.00 mm 49.00 W/m2 unknown
17:09 11.0 °C -2.0 °C 1029.7 hPa ESE 10 km/h 15 km/h 41% 0.00 mm 42.00 W/m2 unknown
17:14 11.0 °C -2.0 °C 1029.8 hPa SE 8 km/h 14 km/h 43% 0.00 mm 35.00 W/m2 unknown
17:19 10.0 °C -2.0 °C 1029.8 hPa SE 5 km/h 11 km/h 43% 0.00 mm 21.00 W/m2 unknown
17:24 10.0 °C -2.0 °C 1029.8 hPa SE 5 km/h 6 km/h 44% 0.00 mm 14.00 W/m2 unknown
17:29 10.0 °C -2.0 °C 1029.8 hPa ESE 6 km/h 8 km/h 45% 0.00 mm 9.00 W/m2 unknown
17:34 10.0 °C -2.0 °C 1029.9 hPa SE 4 km/h 8 km/h 45% 0.00 mm 5.00 W/m2 unknown
17:39 9.0 °C -2.0 °C 1030.0 hPa SE 3 km/h 6 km/h 47% 0.00 mm 0.00 W/m2 unknown
17:44 9.0 °C -2.0 °C 1030.0 hPa SE 3 km/h 5 km/h 48% 0.00 mm 0.00 W/m2 unknown
17:49 9.0 °C -2.0 °C 1030.0 hPa SE 3 km/h 5 km/h 48% 0.00 mm 0.00 W/m2 unknown
17:54 9.0 °C -2.0 °C 1030.1 hPa SE 3 km/h 6 km/h 50% 0.00 mm 0.00 W/m2 unknown
17:59 8.0 °C -1.0 °C 1030.1 hPa SE 4 km/h 6 km/h 53% 0.00 mm 0.00 W/m2 unknown
18:04 8.0 °C -1.0 °C 1030.2 hPa SE 3 km/h 6 km/h 54% 0.00 mm 0.00 W/m2 unknown
18:09 8.0 °C -1.0 °C 1030.2 hPa SE 3 km/h 6 km/h 54% 0.00 mm 0.00 W/m2 unknown
18:14 8.0 °C -1.0 °C 1030.2 hPa ESE 4 km/h 6 km/h 52% 0.00 mm 0.00 W/m2 unknown
18:19 8.0 °C -1.0 °C 1030.2 hPa ESE 4 km/h 6 km/h 52% 0.00 mm 0.00 W/m2 unknown
18:24 8.0 °C -1.0 °C 1030.2 hPa ESE 3 km/h 5 km/h 53% 0.00 mm 0.00 W/m2 unknown
18:29 8.0 °C -1.0 °C 1030.2 hPa ESE 3 km/h 6 km/h 54% 0.00 mm 0.00 W/m2 unknown
18:34 7.0 °C -1.0 °C 1030.3 hPa ESE 4 km/h 6 km/h 55% 0.00 mm 0.00 W/m2 unknown
18:39 7.0 °C -1.0 °C 1030.3 hPa ESE 4 km/h 6 km/h 57% 0.00 mm 0.00 W/m2 unknown
18:44 7.0 °C 0.0 °C 1030.3 hPa ESE 4 km/h 6 km/h 61% 0.00 mm 0.00 W/m2 unknown
18:49 7.0 °C -1.0 °C 1030.3 hPa ESE 2 km/h 5 km/h 59% 0.00 mm 0.00 W/m2 unknown
18:54 6.0 °C -1.0 °C 1030.4 hPa ESE 2 km/h 6 km/h 59% 0.00 mm 0.00 W/m2 unknown
18:59 6.0 °C -1.0 °C 1030.4 hPa ESE 2 km/h 5 km/h 60% 0.00 mm 0.00 W/m2 unknown
19:04 6.0 °C -1.0 °C 1030.5 hPa Calm   2 km/h 60% 0.00 mm 0.00 W/m2 unknown
19:09 6.0 °C -1.0 °C 1030.6 hPa Calm     60% 0.00 mm 0.00 W/m2 unknown
19:14 6.0 °C -1.0 °C 1030.6 hPa Calm     60% 0.00 mm 0.00 W/m2 unknown
19:19 6.0 °C -1.0 °C 1030.6 hPa Calm     61% 0.00 mm 0.00 W/m2 unknown
19:24 6.0 °C -1.0 °C 1030.6 hPa Calm     62% 0.00 mm 0.00 W/m2 unknown
19:29 5.0 °C -1.0 °C 1030.6 hPa Calm     63% 0.00 mm 0.00 W/m2 unknown
19:34 5.0 °C -1.0 °C 1030.6 hPa Calm     63% 0.00 mm 0.00 W/m2 unknown
19:39 5.0 °C -1.0 °C 1030.6 hPa Calm     64% 0.00 mm 0.00 W/m2 unknown
19:44 5.0 °C -1.0 °C 1030.6 hPa Calm     65% 0.00 mm 0.00 W/m2 unknown
19:49 4.0 °C -1.0 °C 1030.6 hPa Calm     66% 0.00 mm 0.00 W/m2 unknown
19:54 4.0 °C -1.0 °C 1030.6 hPa Calm     66% 0.00 mm 0.00 W/m2 unknown
19:59 4.0 °C -1.0 °C 1030.6 hPa Calm     67% 0.00 mm 0.00 W/m2 unknown
20:04 4.0 °C -1.0 °C 1030.6 hPa Calm     68% 0.00 mm 0.00 W/m2 unknown
20:09 4.0 °C -1.0 °C 1030.6 hPa Calm     68% 0.00 mm 0.00 W/m2 unknown
20:14 4.0 °C -1.0 °C 1030.6 hPa Calm     68% 0.00 mm 0.00 W/m2 unknown
20:19 4.0 °C -1.0 °C 1030.6 hPa Calm     68% 0.00 mm 0.00 W/m2 unknown
20:24 4.0 °C -1.0 °C 1030.6 hPa Calm     68% 0.00 mm 0.00 W/m2 unknown
20:29 4.0 °C -1.0 °C 1030.6 hPa Calm     66% 0.00 mm 0.00 W/m2 unknown
20:34 4.0 °C -1.0 °C 1030.6 hPa Calm     67% 0.00 mm 0.00 W/m2 unknown
20:39 4.0 °C -1.0 °C 1030.6 hPa Calm     69% 0.00 mm 0.00 W/m2 unknown
20:44 4.0 °C -1.0 °C 1030.6 hPa Calm     69% 0.00 mm 0.00 W/m2 unknown
20:49 4.0 °C -1.0 °C 1030.6 hPa Calm     68% 0.00 mm 0.00 W/m2 unknown
20:54 4.0 °C -2.0 °C 1030.7 hPa Calm     67% 0.00 mm 0.00 W/m2 unknown
20:59 4.0 °C -1.0 °C 1030.7 hPa Calm     67% 0.00 mm 0.00 W/m2 unknown
21:04 4.0 °C -2.0 °C 1030.7 hPa Calm     68% 0.00 mm 0.00 W/m2 unknown
21:09 4.0 °C -1.0 °C 1030.7 hPa Calm     70% 0.00 mm 0.00 W/m2 unknown
21:14 3.0 °C -1.0 °C 1030.8 hPa Calm     70% 0.00 mm 0.00 W/m2 unknown
21:19 3.0 °C -2.0 °C 1030.8 hPa Calm     71% 0.00 mm 0.00 W/m2 unknown
21:24 3.0 °C -2.0 °C 1030.9 hPa Calm     71% 0.00 mm 0.00 W/m2 unknown
21:29 3.0 °C -2.0 °C 1030.9 hPa Calm     73% 0.00 mm 0.00 W/m2 unknown
21:34 2.0 °C -2.0 °C 1030.9 hPa NE 5 km/h 6 km/h 74% 0.00 mm 0.00 W/m2 unknown
21:39 3.0 °C -2.0 °C 1030.9 hPa NE 5 km/h 6 km/h 74% 0.00 mm 0.00 W/m2 unknown
21:44 3.0 °C -2.0 °C 1031.0 hPa NE 4 km/h 6 km/h 73% 0.00 mm 0.00 W/m2 unknown
21:49 3.0 °C -2.0 °C 1031.0 hPa ENE 4 km/h 6 km/h 70% 0.00 mm 0.00 W/m2 unknown
21:54 3.0 °C -2.0 °C 1030.9 hPa ENE 3 km/h 6 km/h 70% 0.00 mm 0.00 W/m2 unknown
21:59 3.0 °C -2.0 °C 1030.9 hPa ENE 3 km/h 6 km/h 70% 0.00 mm 0.00 W/m2 unknown
22:04 3.0 °C -2.0 °C 1030.9 hPa ENE 3 km/h 5 km/h 71% 0.00 mm 0.00 W/m2 unknown
22:09 3.0 °C -2.0 °C 1031.0 hPa ENE 3 km/h 4 km/h 72% 0.00 mm 0.00 W/m2 unknown
22:14 2.0 °C -2.0 °C 1031.0 hPa ENE 3 km/h 6 km/h 74% 0.00 mm 0.00 W/m2 unknown
22:19 2.0 °C -2.0 °C 1031.0 hPa ENE 2 km/h 5 km/h 74% 0.00 mm 0.00 W/m2 unknown
22:24 2.0 °C -2.0 °C 1031.0 hPa Calm   2 km/h 75% 0.00 mm 0.00 W/m2 unknown
22:29 2.0 °C -2.0 °C 1031.0 hPa Calm     75% 0.00 mm 0.00 W/m2 unknown
22:34 2.0 °C -2.0 °C 1031.0 hPa East 4 km/h 6 km/h 76% 0.00 mm 0.00 W/m2 unknown
22:39 2.0 °C -2.0 °C 1031.0 hPa ENE 3 km/h 6 km/h 76% 0.00 mm 0.00 W/m2 unknown
22:44 2.0 °C -2.0 °C 1030.9 hPa East 3 km/h 6 km/h 76% 0.00 mm 0.00 W/m2 unknown
22:49 2.0 °C -2.0 °C 1030.9 hPa ENE 4 km/h 6 km/h 77% 0.00 mm 0.00 W/m2 unknown
22:54 2.0 °C -2.0 °C 1030.9 hPa ENE 3 km/h 4 km/h 77% 0.00 mm 0.00 W/m2 unknown
22:59 2.0 °C -2.0 °C 1031.0 hPa ENE 3 km/h 4 km/h 76% 0.00 mm 0.00 W/m2 unknown
23:04 2.0 °C -2.0 °C 1031.0 hPa ENE 3 km/h 4 km/h 76% 0.00 mm 0.00 W/m2 unknown
23:09 2.0 °C -2.0 °C 1031.0 hPa ENE 4 km/h 6 km/h 77% 0.00 mm 0.00 W/m2 unknown
23:14 2.0 °C -2.0 °C 1030.9 hPa ENE 4 km/h 6 km/h 77% 0.00 mm 0.00 W/m2 unknown
23:19 2.0 °C -2.0 °C 1030.9 hPa ENE 5 km/h 6 km/h 77% 0.00 mm 0.00 W/m2 unknown
23:24 2.0 °C -2.0 °C 1030.9 hPa ENE 4 km/h 6 km/h 77% 0.00 mm 0.00 W/m2 unknown
23:29 2.0 °C -2.0 °C 1030.9 hPa ENE 5 km/h 6 km/h 77% 0.00 mm 0.00 W/m2 unknown
23:34 3.0 °C -2.0 °C 1030.9 hPa ENE 5 km/h 6 km/h 74% 0.00 mm 0.00 W/m2 unknown
23:39 3.0 °C -2.0 °C 1030.8 hPa ENE 4 km/h 8 km/h 71% 0.00 mm 0.00 W/m2 unknown
23:44 3.0 °C -2.0 °C 1030.8 hPa ENE 6 km/h 8 km/h 70% 0.00 mm 0.00 W/m2 unknown
23:49 3.0 °C -2.0 °C 1030.7 hPa NE 4 km/h 8 km/h 69% 0.00 mm 0.00 W/m2 unknown
23:54 3.0 °C -2.0 °C 1030.7 hPa NE 3 km/h 6 km/h 71% 0.00 mm 0.00 W/m2 unknown
23:59 2.0 °C -2.0 °C 1030.7 hPa NE 5 km/h 6 km/h 72% 0.00 mm 0.00 W/m2 unknown
Stazione Meteorologica MeteoMincio Rivalta s/M (MN)
Con i complimenti di Weather Underground - 4 mb



METEO PILLOLE
Nevicata con fiocchi più grandi
Montana - USA
Nella spettacolare nevicata del 1994 caddero fiocchi del diametro di 40 cm.
Share

Non seguire questo link o sarai bannato dal sito!